Regional Weather Roundup
Issued by NWS

Home | Current Version | Previous Version | Text Only | Print | Product List | Glossary Off
Versions: 1 2 3 4 5 6 7 8 9 10 11 12 13 14 15 16 17 18 19 20 21 22 23 24 25 26 27 28 29 30 31 32 33 34 35 36 37 38 39 40 41 42 43 44 45 46 47 48 49 50

000
ASUS45 KTFX 230319
RWRMT
MONTANA HOURLY WEATHER ROUNDUP
NATIONAL WEATHER SERVICE GREAT FALLS MT
919 PM MDT MON SEP 22 2014

NOTE: "FAIR" INDICATES FEW OR NO CLOUDS BELOW 12000 FEET WITH NO
SIGNIFICANT WEATHER AND/OR OBSTRUCTIONS TO VISIBILITY.

* THESE STATIONS ARE NOT UNDER NWS QUALITY CONTROL. THEY DO NOT
   REPORT WEATHER SUCH AS PRECIPITATION OR FOG.

MTZ001>007-043-230400-
WEST OF THE DIVIDE
CITY           SKY/WX    TMP DP  RH WIND       PRES   REMARKS
KALISPELL      MOCLDY    61  48  62 CALM      29.91R
MISSOULA       MOCLDY    72  43  35 CALM      29.96R
BUTTE          CLOUDY    57  48  72 S5        30.11R
MULLAN PASS    CLOUDY    61  43  52 VRB5      30.12S
* ESSEX        N/A       61  46  58 SE3        N/A
* LINCOLN      N/A       70  35  28 S2G9       N/A
* POLSON       N/A       67  44  44 E1         N/A
* RONAN APT    MOCLDY    66  46  49 N/A        N/A
* SEELEY LAKE  N/A       62  35  37 E1         N/A
* THOMP F APT  MOCLDY    53  51  93 N5         N/A
$$

MTZ008-052>055-230400-
SOUTHWEST MONTANA
CITY           SKY/WX    TMP DP  RH WIND       PRES   REMARKS
BOZEMAN        CLOUDY    57  54  90 S6        30.05R
DILLON         CLOUDY    57  52  83 E8        30.09S
W YELLOWSTONE  CLOUDY    52  48  86 SW9       30.21R
* THREE FORKS  MOCLDY    64  64 100 N/A        N/A
* BOULDER HILL N/A       61  43  52 SW11       N/A
* MONIDA PASS  N/A       51  51 100 SE8        N/A
* RAYNOLDS PAS N/A       52  33  48 SE12G17    N/A
* WHITEHALL    N/A       62  50  65 W5         N/A
* WISE RIVER   N/A       58  47  67 S4         N/A
$$

MTZ009>010-012-014-046-048-049-054-230400-
EAST SLOPES AND CENTRAL MONTANA
CITY           SKY/WX    TMP DP  RH WIND       PRES   REMARKS
CUT BANK       PTCLDY    64  45  50 W12       29.92R
GREAT FALLS    MOCLDY    64  48  56 S9        29.91R
HELENA         CLOUDY    66  52  61 CALM      29.98R
MALMSTROM AFB  MOCLDY    66  50  56 SW6       29.92R
* CONRAD       PTCLDY    73  46  38 W11G17     N/A
* EAST GLACIER N/A       68  41  38 SW6G12     N/A
* MONARCH      N/A       63  42  46 S9         N/A
* PENDROY      N/A       65  43  45 NW11       N/A
* ROGERS PASS  N/A       63  42  46 SW2        N/A
* SAINT MARY   N/A       65  41  42 S5G11      N/A
* SWEET GRASS  N/A       74  39  28 NW8        N/A
* WHITE SULPH  N/A       63  47  56 S10G16     N/A
$$

MTZ011-013-016-021-035-040-045-047-050-051-230400-
NORTH CENTRAL MONTANA
CITY           SKY/WX    TMP DP  RH WIND       PRES   REMARKS
HAVRE          MOCLDY    63  50  63 CALM      29.83R
LEWISTOWN      MOCLDY    61  52  72 SE7       29.94R
* CHINOOK      PTCLDY    63  54  73 CALM      29.83S
* FORT BENTON  PTCLDY    72  50  46 SW6       29.86R
* CHESTER      N/A       70  40  34 NE3G9      N/A
* DENTON       N/A       62  48  60 W4         N/A
* GEYSER       N/A       63  46  54 S1         N/A
* JUDITH GAP   N/A       58  52  81 SE4        N/A
* LOMA         N/A       72  50  46 S2         N/A
$$

MTZ017>020-022>027-061-062-230400-
NORTHEAST MONTANA
CITY           SKY/WX    TMP DP  RH WIND       PRES   REMARKS
GLASGOW        CLEAR     64  46  52 E7        29.83S
GLENDIVE       PTCLDY    63  50  63 NE5       29.88S
JORDAN         CLEAR     57  48  72 CALM      29.85S
SIDNEY         PTCLDY    64  48  56 CALM      29.88R
WOLF POINT     CLEAR     61  46  58 NE3       29.84R
* BEAVER HILL  N/A       64  49  58 E12        N/A
* CIRCLE       N/A       66  51  59 N/A        N/A
* LINDSAY DVD  N/A       61  50  67 NE8        N/A
* NAVAJO       N/A       64  45  50 SE4        N/A
$$

MTZ028>042-056>058-230400-
SOUTHCENTRAL AND SOUTHEAST MONTANA
CITY           SKY/WX    TMP DP  RH WIND       PRES   REMARKS
BAKER          PTCLDY    59  48  67 SE3       29.89F
BILLINGS       MOCLDY    72  48  43 W7        29.94R
LIVINGSTON     PTCLDY    63  48  58 W9        30.03R
MILES CITY     CLEAR     64  48  56 NW7       29.86R
* LAUREL APT   PTCLDY    72  45  38 W7         N/A
* ROUNDUP APT  PTCLDY    72  43  35 N/A        N/A
* ALZADA       N/A       68  50  53 E7         N/A
* HYSHAM       N/A       71  46  41 W3         N/A
* LAME DEER    N/A       68  47  47 W6         N/A
* REED POINT   N/A       67  45  45 NW3G9      N/A
* ROSCOE HILL  N/A       65  39  39 S11        N/A
$$

REGIONAL REPORTS...DAKOTAS
CITY           SKY/WX    TMP DP  RH WIND       PRES   REMARKS
WILLISTON      CLEAR     68  50  53 SE6       29.88R
DICKINSON      PTCLDY    57  48  72 E9        29.89F
BEACH          N/A       57  50  78 S6        29.90S
CROSBY         CLEAR     54  50  86 E3        29.90R
TIOGA          CLEAR     59  50  72 SE9       29.94R
WATFORD CITY   CLEAR     63  48  58 SE10      29.87S
BISMARCK       PTCLDY    64  50  61 SE9       29.95S
GRAND FORKS    CLEAR     57  48  72 SE7       30.03R
FARGO          CLEAR     64  46  52 SE10      30.06R
BUFFALO SD     MOCLDY    64  52  65 SE9       29.84S
RAPID CITY     CLOUDY    63  55  75 SE6       29.95R
$$

REGIONAL REPORTS...WYOMING/IDAHO/WASHINGTON
CITY           SKY/WX    TMP DP  RH WIND       PRES   REMARKS
GILLETTE       CLOUDY    64  48  56 W12       29.96R
SHERIDAN       MOCLDY    59  48  67 SW6       29.97R
CODY           PTCLDY    66  45  47 W8G20     30.06R
YELLOWSTONE LA MOCLDY    48  46  93 CALM      30.29R
SALMON         MOCLDY    64  52  65 CALM      30.05R
MULLAN PASS    CLOUDY    61  43  52 VRB5      30.12S
SAND POINT     MOCLDY    63  54  73 CALM      29.90R
SPOKANE        LGT RAIN  70  55  59 S10       29.92R
$$

REGIONAL REPORTS...ALBERTA
CITY           SKY/WX    TMP DP  RH WIND       PRES   REMARKS
CALGARY        PTCLDY    68  43  40 S2        29.84R
LETHBRIDGE     PTCLDY    64  45  50 W8        29.85R
MEDICINE HAT   MOCLDY    59  50  72 S5        29.80R
EDMONTON       MOCLDY    59  45  60 S7        29.73R
WATERTON GATE  N/A       63  43  48 SW9        N/A
CARDSTON       N/A       64  46  52 SW8        N/A
MILK RIVER     N/A       55  46  72 NW6        N/A
$$

REGIONAL REPORTS...SASKATCHEWAN
CITY           SKY/WX    TMP DP  RH WIND       PRES   REMARKS
SWIFT CURRENT  CLEAR     63  48  58 S14       29.81S
REGINA         N/A       64  48  56 SE14      29.85S
VAL MARIE      N/A       52  48  86 NW5        N/A
ASSINIBOIA     N/A       63  45  52 SE9        N/A
CORONACH       N/A       55  43  64 SE2        N/A

$$



USA.gov is the U.S. government's official web portal to all federal, state and local government web resources and services.